Weather History for KNQX - May, 2012

Change the Weather History Date:

Monday, May 21, 2012

  Actual Average Record
Temperature  
Mean Temperature 78 °F -  
Max Temperature 86 °F 85 °F 91 °F (1997)
Min Temperature 73 °F 76 °F 68 °F (1999)
Cooling Degree Days 14    
Growing Degree Days 28 (Base 50)    
Moisture  
Dew Point 72 °F    
Average Humidity 78    
Maximum Humidity 93    
Minimum Humidity 67    
Precipitation  
Precipitation 0.07 in - - ()
Sea Level Pressure  
Sea Level Pressure 29.96 in    
Wind  
Wind Speed 3 mph (ESE)    
Max Wind Speed 12 mph    
Max Gust Speed -    
Visibility 10 miles    
Events Rain    
Averages and records for this station are not official NWS values.
T = Trace of Precipitation, MM = Missing Value Source: NWS Daily Summary

Daily Weather History Graph

Daily Weather History Graph

Search for Another Location

Airport or City:

Trip Planner

Search our weather history database for the weather conditions in past years. The results will help you decide how hot, cold, wet, or windy it might be!

Date:

Astronomy

May. 21, 2012 Rise Set
Actual Time 6:40 AM EDT 8:06 PM EDT
Civil Twilight 6:15 AM EDT 8:31 PM EDT
Nautical Twilight 5:45 AM EDT 9:01 PM EDT
Astronomical Twilight 5:14 AM EDT 9:32 PM EDT
Moon 7:04 AM EDT (5/21) 8:53 PM EDT (5/21)
Length of Visible Light 14h 16m
Length of Day
13h 26m
New Moon, 0% of the Moon is Illuminated
May 21
New Moon
May 28
First Quarter
Jun 4
Full
Jun 11
Last Quarter
Jun 19
New

Hourly Weather History & Observations

Time (EDT) Temp. Heat Index Dew Point Humidity Pressure Visibility Wind Dir Wind Speed Gust Speed Precip Events Conditions
12:53 AM 75.9 °F - 71.1 °F 85% 29.97 in 10.0 mi Calm Calm - N/A   Clear
1:21 AM - - - N/A% - - North - - N/A   Unknown
1:53 AM 75.9 °F - 72.0 °F 87% 29.96 in 10.0 mi Calm Calm - N/A   Clear
2:53 AM 75.0 °F - 71.1 °F 87% 29.94 in 10.0 mi Calm Calm - N/A   Clear
3:53 AM 75.0 °F - 71.1 °F 87% 29.93 in 10.0 mi Calm Calm - N/A   Clear
4:53 AM 75.0 °F - 72.0 °F 90% 29.93 in 10.0 mi Calm Calm - N/A   Clear
5:53 AM 73.0 °F - 71.1 °F 93% 29.95 in 10.0 mi Calm Calm - N/A   Clear
6:15 AM - - - N/A% - - North - - N/A   Unknown
6:53 AM 75.9 °F - 72.0 °F 87% 29.95 in 10.0 mi ENE 3.5 mph - N/A   Scattered Clouds
7:53 AM 79.0 °F - 73.0 °F 82% 29.97 in 10.0 mi East 4.6 mph - N/A   Scattered Clouds
8:53 AM 80.1 °F 83.6 °F 71.1 °F 74% 29.98 in 10.0 mi ESE 4.6 mph - N/A   Scattered Clouds
9:53 AM 80.1 °F 83.8 °F 72.0 °F 76% 29.99 in 10.0 mi SE 8.1 mph - N/A   Mostly Cloudy
10:53 AM 81.0 °F 84.9 °F 71.1 °F 72% 29.99 in 10.0 mi Calm Calm - N/A   Scattered Clouds
11:53 AM 82.9 °F 87.5 °F 71.1 °F 67% 29.99 in 10.0 mi South 4.6 mph - N/A   Scattered Clouds
12:53 PM 82.0 °F 86.7 °F 72.0 °F 71% 29.98 in 10.0 mi SE 4.6 mph - N/A   Mostly Cloudy
1:28 PM 80.6 °F 85.4 °F 73.4 °F 79% 29.99 in 10.0 mi South 3.5 mph - 0.00 in Rain Light Rain
1:53 PM 80.1 °F 84.2 °F 73.0 °F 79% 29.99 in 10.0 mi ENE 4.6 mph - 0.02 in Rain Light Rain
2:26 PM 78.8 °F - 71.6 °F 78% 29.98 in 10.0 mi North 3.5 mph - 0.05 in Rain Light Rain
2:38 PM 82.4 °F 88.2 °F 73.4 °F 74% 29.97 in 10.0 mi NE 3.5 mph - 0.05 in   Mostly Cloudy
2:53 PM 84.0 °F 90.2 °F 73.0 °F 69% 29.96 in 10.0 mi NNE 6.9 mph - 0.05 in   Mostly Cloudy
3:53 PM 82.9 °F 88.0 °F 72.0 °F 69% 29.95 in 10.0 mi NE 3.5 mph - N/A   Mostly Cloudy
4:53 PM 82.9 °F 87.5 °F 71.1 °F 67% 29.95 in 10.0 mi NNE 5.8 mph - N/A   Mostly Cloudy
5:53 PM 82.0 °F 86.7 °F 72.0 °F 71% 29.93 in 10.0 mi SE 8.1 mph - N/A   Mostly Cloudy
6:53 PM 81.0 °F 84.9 °F 71.1 °F 72% 29.93 in 10.0 mi SE 9.2 mph - N/A   Mostly Cloudy
7:53 PM 80.1 °F 83.2 °F 70.0 °F 71% 29.94 in 10.0 mi SE 10.4 mph - N/A   Mostly Cloudy
8:53 PM 79.0 °F - 72.0 °F 79% 29.96 in 10.0 mi South 10.4 mph - N/A   Mostly Cloudy
9:53 PM 79.0 °F - 73.0 °F 82% 29.96 in 10.0 mi SSE 11.5 mph - N/A   Mostly Cloudy
10:53 PM 79.0 °F - 71.1 °F 77% 29.98 in 10.0 mi South 10.4 mph - N/A   Mostly Cloudy
11:53 PM 78.1 °F - 71.1 °F 79% 29.97 in 10.0 mi SSE 8.1 mph - N/A   Partly Cloudy